FW0932 Weather Reports


time (UTC)temp
C
wind
direction
speed
KPH
gust
KPH
rain 1hr
cm
rain 24hr
cm
rain mn
cm
humidity
%
barometer
mb
20260508050703 31 33 8.0 12.9 0.00 0.00 0.00 73 1012.0
20260508050203 31 24 4.8 11.3 0.00 0.00 0.00 72 1012.0
20260508045703 31 285 4.8 9.7 0.00 0.00 0.00 72 1012.2
20260508045202 31 277 4.8 9.7 0.00 0.00 0.00 73 1012.3
20260508044703 30 298 1.6 4.8 0.00 0.00 0.00 75 1012.2
20260508044203 30 266 4.8 9.7 0.00 0.00 0.00 75 1012.3
20260508043703 30 359 4.8 11.3 0.00 0.00 0.00 73 1012.5
20260508043203 30 234 3.2 8.0 0.00 0.00 0.00 74 1012.5
20260508042703 30 321 4.8 9.7 0.00 0.00 0.00 74 1012.5
20260508042203 30 307 6.4 11.3 0.00 0.00 0.00 74 1012.5
20260508041703 31 355 8.0 14.5 0.00 0.00 0.00 73 1012.6
20260508041203 31 240 1.6 4.8 0.00 0.00 0.00 72 1012.7
20260508040704 31 341 4.8 11.3 0.00 0.00 0.00 70 1012.8
20260508040203 32 318 3.2 8.0 0.00 0.00 0.00 70 1012.8
20260508035703 31 184 1.6 4.8 0.00 0.00 0.00 70 1012.8
20260508035203 31 173 1.6 4.8 0.00 0.00 0.00 73 1012.9
20260508034703 31 17 3.2 11.3 0.00 0.00 0.00 72 1012.9
20260508034203 31 8 1.6 4.8 0.00 0.00 0.00 72 1012.9
20260508033704 31 79 3.2 8.0 0.00 0.00 0.00 71 1013.0
20260508033202 31 97 1.6 4.8 0.00 0.00 0.00 71 1013.2
20260508032703 31 301 4.8 8.0 0.00 0.00 0.00 70 1013.2
20260508031703 31 16 1.6 4.8 0.00 0.00 0.00 71 1013.4
20260508031203 31 92 1.6 3.2 0.00 0.00 0.00 72 1013.5
20260508030703 30 133 1.6 4.8 0.00 0.00 0.00 74 1013.6
20260508030203 30 350 4.8 9.7 0.00 0.00 0.00 75 1013.6
20260508025703 29 296 1.6 8.0 0.00 0.00 0.00 75 1013.8
20260508025206 29 278 3.2 4.8 0.00 0.00 0.00 76 1013.8
20260508024203 28 20 6.4 9.7 0.00 0.00 0.00 74 1013.8
20260508023703 30 5 3.2 9.7 0.00 0.00 0.00 74 1013.9
20260508023204 30 260 1.6 4.8 0.00 0.00 0.00 75 1014.1
20260508022703 29 239 1.6 8.0 0.00 0.00 0.00 76 1014.1
20260508022204 28 45 1.6 4.8 0.00 0.00 0.00 78 1014.0
20260508021704 28 7 4.8 8.0 0.00 0.00 0.00 77 1014.1
20260508021203 28 60 3.2 8.0 0.00 0.00 0.00 78 1014.2
20260508020703 28 339 3.2 11.3 0.00 0.00 0.00 80 1014.2
20260508020203 28 11 4.8 9.7 0.00 0.00 0.00 79 1014.3
20260508015703 28 269 3.2 8.0 0.00 0.00 0.00 78 1014.2
20260508015203 28 29 3.2 8.0 0.00 0.00 0.00 78 1014.2
20260508014703 28 0 3.2 9.7 0.00 0.00 0.00 78 1014.3
20260508014203 28 279 4.8 12.9 0.00 0.00 0.00 78 1014.3
20260508013203 28 0 1.6 9.7 0.00 0.00 0.00 79 1014.3
20260508012703 28 352 3.2 8.0 0.00 0.00 0.00 78 1014.3
20260508011704 28 344 3.2 4.8 0.00 0.00 0.00 79 1014.2
20260508011203 28 6 1.6 3.2 0.00 0.00 0.00 81 1014.2
20260508010704 27 57 1.6 4.8 0.00 0.00 0.00 81 1014.0
20260508010204 27 76 3.2 3.2 0.00 0.00 0.00 80 1014.1
20260508005703 27 183 3.2 3.2 0.00 0.00 0.00 81 1013.9
20260508005204 27 180 1.6 3.2 0.00 0.00 0.00 82 1013.9
20260508004203 27 187 1.6 3.2 0.00 0.00 0.00 82 1013.9
20260508003703 27 65 0.0 1.6 0.00 0.00 0.00 83 1013.9
20260508003203 27 65 0.0 0.0 0.00 0.00 0.00 83 1013.8
20260508002704 26 66 0.0 0.0 0.00 0.00 0.00 84 1013.9
20260508002203 26 66 0.0 1.6 0.00 0.00 0.00 84 1013.8
20260508001703 26 72 1.6 3.2 0.00 0.00 0.00 84 1013.9
20260508001203 26 61 0.0 3.2 0.00 0.00 0.00 84 1014.0
20260508000703 26 62 1.6 3.2 0.00 0.00 0.00 83 1013.9
20260508000204 27 91 1.6 3.2 0.00 0.00 0.00 83 1013.8
20260507235704 27 88 0.0 3.2 0.00 0.00 0.00 84 1013.8
20260507235203 27 68 1.6 3.2 0.00 0.00 0.00 84 1013.9
20260507234704 26 169 0.0 3.2 0.00 0.00 0.00 85 1013.8
20260507233203 26 88 0.0 1.6 0.00 0.00 0.00 87 1013.5
20260507232704 25 84 1.6 3.2 0.00 0.00 0.00 88 1013.4
20260507232203 25 56 0.0 1.6 0.00 0.00 0.00 88 1013.5
20260507230703 25 89 1.6 3.2 0.00 0.00 0.00 89 1013.4
20260507230204 25 89 1.6 3.2 0.00 0.00 0.00 89 1013.3
20260507225703 25 80 1.6 3.2 0.00 0.00 0.00 89 1013.4
20260507225203 25 90 0.0 1.6 0.00 0.00 0.00 89 1013.4
20260507224704 25 92 0.0 3.2 0.00 0.00 0.00 89 1013.3
20260507224203 25 52 0.0 3.2 0.00 0.00 0.00 89 1013.1
20260507223703 25 74 3.2 4.8 0.00 0.00 0.00 89 1013.1
20260507223203 24 75 1.6 1.6 0.00 0.00 0.00 90 1013.1
20260507222204 24 83 0.0 3.2 0.00 0.00 0.00 90 1012.8
20260507220703 24 71 1.6 3.2 0.00 0.00 0.00 89 1012.7
20260507215703 24 93 1.6 3.2 0.00 0.00 0.00 89 1012.6
20260507215204 24 86 1.6 3.2 0.00 0.00 0.00 89 1012.5
20260507214704 24 106 0.0 0.0 0.00 0.00 0.00 90 1012.3
20260507214203 24 106 0.0 1.6 0.00 0.00 0.00 89 1012.3
20260507213703 24 103 1.6 1.6 0.00 0.00 0.00 89 1012.4
20260507213203 24 71 0.0 1.6 0.00 0.00 0.00 89 1012.3
20260507212704 24 71 0.0 1.6 0.00 0.00 0.00 89 1012.3
20260507211703 24 71 0.0 1.6 0.00 0.00 0.00 89 1012.2
20260507210703 25 71 0.0 1.6 0.00 0.00 0.00 89 1012.1
20260507210203 25 70 0.0 1.6 0.00 0.00 0.00 89 1012.0
20260507205703 25 70 0.0 1.6 0.00 0.00 0.00 89 1012.0
20260507205203 25 72 0.0 1.6 0.00 0.00 0.00 89 1011.9
20260507204703 25 72 1.6 3.2 0.00 0.00 0.00 89 1011.8
20260507204204 25 81 1.6 3.2 0.00 0.00 0.00 88 1011.6
20260507203704 25 92 0.0 1.6 0.00 0.00 0.00 88 1011.5
20260507202703 25 81 1.6 3.2 0.00 0.00 0.00 89 1011.6
20260507202203 25 66 0.0 1.6 0.00 0.00 0.00 88 1011.5
20260507201703 25 70 1.6 1.6 0.00 0.00 0.00 89 1011.4
20260507201203 25 60 0.0 1.6 0.00 0.00 0.00 89 1011.4
20260507195204 25 69 1.6 3.2 0.00 0.00 0.00 89 1011.3
20260507194704 25 77 1.6 3.2 0.00 0.00 0.00 89 1011.4
20260507193704 24 59 1.6 3.2 0.00 0.00 0.00 89 1011.3
20260507193203 25 80 3.2 4.8 0.00 0.00 0.00 89 1011.3
20260507192203 25 73 3.2 4.8 0.00 0.00 0.00 89 1011.4
20260507191203 25 76 1.6 3.2 0.00 0.00 0.00 89 1011.5
20260507190704 25 75 1.6 3.2 0.00 0.00 0.00 89 1011.5
20260507190204 25 62 1.6 4.8 0.00 0.00 0.00 89 1011.5
20260507185704 25 81 3.2 4.8 0.00 0.00 0.00 88 1011.6
20260507185203 25 79 1.6 4.8 0.00 0.00 0.00 89 1011.7
20260507184703 25 33 3.2 4.8 0.00 0.00 0.00 88 1011.7
20260507184204 25 74 1.6 4.8 0.00 0.00 0.00 88 1011.8
20260507183703 25 61 1.6 3.2 0.00 0.00 0.00 88 1011.8
20260507183204 25 76 1.6 1.6 0.00 0.00 0.00 88 1011.9
20260507182703 25 64 1.6 1.6 0.00 0.00 0.00 87 1011.9
20260507182203 25 78 0.0 4.8 0.00 0.00 0.00 87 1011.8
20260507181703 25 88 3.2 4.8 0.00 0.00 0.00 87 1011.8
20260507181204 25 60 0.0 3.2 0.00 0.00 0.00 86 1011.9
20260507180704 25 53 0.0 0.0 0.00 0.00 0.00 87 1012.1
20260507180204 25 173 0.0 0.0 0.00 0.00 0.00 87 1012.2
20260507174703 25 158 0.0 1.6 0.00 0.00 0.00 88 1012.2
20260507173704 25 90 0.0 3.2 0.00 0.00 0.00 88 1012.1
20260507173204 25 153 0.0 3.2 0.00 0.00 0.00 88 1012.3
20260507172704 25 99 1.6 3.2 0.00 0.00 0.00 88 1012.3
20260507172203 25 166 1.6 3.2 0.00 0.00 0.00 88 1012.3
20260507171204 25 123 4.8 4.8 0.00 0.00 0.00 88 1012.1
20260507170710 25 143 3.2 4.8 0.00 0.00 0.00 88 1012.3
20260507165706 25 72 1.6 1.6 0.00 0.00 0.00 88 1012.3
20260507164704 25 68 1.6 3.2 0.00 0.00 0.00 88 1012.4
20260507164203 25 78 1.6 4.8 0.00 0.00 0.00 87 1012.5
20260507163704 25 52 1.6 3.2 0.00 0.00 0.00 88 1012.5
20260507163203 25 24 1.6 3.2 0.00 0.00 0.00 87 1012.5
20260507162204 25 77 1.6 3.2 0.00 0.00 0.00 88 1012.6
20260507161705 25 13 1.6 3.2 0.00 0.00 0.00 87 1012.7
20260507161204 25 72 0.0 1.6 0.00 0.00 0.00 87 1012.6
20260507160703 25 150 0.0 3.2 0.00 0.00 0.00 87 1012.6
20260507155203 25 37 1.6 4.8 0.00 0.00 0.00 87 1012.7
20260507154704 25 149 1.6 3.2 0.00 0.00 0.00 87 1012.6
20260507154204 25 211 0.0 1.6 0.00 0.00 0.00 87 1012.6
20260507153704 25 173 0.0 1.6 0.00 0.00 0.00 87 1012.6
20260507153204 25 163 1.6 3.2 0.00 0.00 0.00 87 1012.7
20260507152703 25 155 1.6 4.8 0.00 0.00 0.00 87 1012.5
20260507152204 25 158 3.2 4.8 0.00 0.00 0.00 87 1012.6
20260507151703 25 148 3.2 4.8 0.00 0.00 0.00 87 1012.8
20260507151204 25 154 3.2 4.8 0.00 0.00 0.00 87 1012.8
20260507150703 25 162 3.2 4.8 0.00 0.00 0.00 87 1012.7
20260507150204 25 168 1.6 4.8 0.00 0.00 0.00 86 1012.8
20260507145204 25 160 4.8 4.8 0.00 0.00 0.00 87 1012.8
20260507144204 26 156 1.6 4.8 0.00 0.00 0.00 87 1012.8
20260507143704 26 118 3.2 4.8 0.00 0.00 0.00 87 1012.8
20260507143204 26 155 3.2 8.0 0.00 0.00 0.00 86 1012.6
20260507142704 26 161 3.2 8.0 0.00 0.00 0.00 86 1012.7
20260507142204 26 85 3.2 4.8 0.00 0.00 0.00 86 1012.7
20260507141703 26 128 3.2 4.8 0.00 0.00 0.00 86 1012.7
20260507141203 26 151 1.6 3.2 0.00 0.00 0.00 86 1012.5
20260507140204 26 168 4.8 8.0 0.00 0.00 0.00 86 1012.3
20260507135203 26 164 1.6 8.0 0.00 0.00 0.00 86 1012.3
20260507134704 26 99 1.6 4.8 0.00 0.00 0.00 86 1012.2
20260507134204 26 146 3.2 4.8 0.00 0.00 0.00 86 1012.0
20260507133704 26 145 4.8 8.0 0.00 0.00 0.00 86 1012.1
20260507133204 26 129 3.2 4.8 0.00 0.00 0.00 86 1012.0
20260507132704 26 125 4.8 4.8 0.00 0.00 0.00 86 1011.8
20260507132203 26 172 1.6 4.8 0.00 0.00 0.00 86 1011.6
20260507131704 26 169 1.6 4.8 0.00 0.00 0.00 86 1011.8
20260507131203 26 175 3.2 4.8 0.00 0.00 0.00 86 1011.9
20260507130704 26 189 1.6 4.8 0.00 0.00 0.00 86 1011.7
20260507130204 26 160 1.6 4.8 0.00 0.00 0.00 85 1011.6
20260507125703 26 154 3.2 9.7 0.00 0.00 0.00 85 1011.3
20260507125203 26 204 1.6 4.8 0.00 0.00 0.00 86 1011.3
20260507124709 26 206 1.6 4.8 0.00 0.00 0.00 86 1011.4
20260507123703 26 113 4.8 11.3 0.00 0.00 0.00 86 1011.0
20260507123202 26 143 6.4 11.3 0.00 0.00 0.00 86 1011.0
20260507122703 26 149 1.6 9.7 0.00 0.00 0.00 86 1011.1
20260507122203 26 165 6.4 9.7 0.00 0.00 0.00 86 1011.1
20260507121702 26 157 3.2 9.7 0.00 0.00 0.00 85 1010.9
20260507121203 26 137 4.8 8.0 0.00 0.00 0.00 85 1010.8
20260507120703 26 170 4.8 16.1 0.00 0.00 0.00 85 1011.0
20260507120202 26 152 3.2 4.8 0.00 0.00 0.00 85 1011.1
20260507115703 26 143 3.2 8.0 0.00 0.00 0.00 84 1010.9
20260507115203 26 141 3.2 9.7 0.00 0.00 0.00 84 1010.8
20260507114703 26 161 6.4 9.7 0.00 0.00 0.00 84 1010.7
20260507114203 26 187 4.8 9.7 0.00 0.00 0.00 84 1010.7
20260507113703 26 136 1.6 16.1 0.00 0.00 0.00 84 1010.7
20260507113203 26 167 1.6 11.3 0.00 0.00 0.00 84 1010.6
20260507112703 26 205 3.2 9.7 0.00 0.00 0.00 84 1010.3
20260507111703 26 218 4.8 11.3 0.00 0.00 0.00 83 1010.2
20260507111203 26 151 4.8 11.3 0.00 0.00 0.00 82 1010.3
20260507110703 27 143 4.8 9.7 0.00 0.00 0.00 82 1010.1
20260507110203 27 186 1.6 4.8 0.00 0.00 0.00 82 1010.1
20260507105703 27 182 1.6 4.8 0.00 0.00 0.00 81 1010.0
20260507105203 27 230 3.2 4.8 0.00 0.00 0.00 81 1010.1
20260507104702 27 184 1.6 4.8 0.00 0.00 0.00 81 1010.1
20260507103702 27 174 1.6 4.8 0.00 0.00 0.00 80 1010.3
20260507103202 28 233 1.6 3.2 0.00 0.00 0.00 79 1010.3
20260507102702 28 180 1.6 4.8 0.00 0.00 0.00 79 1010.4
20260507101702 28 145 6.4 12.9 0.00 0.00 0.00 78 1010.5
20260507101203 28 131 6.4 16.1 0.00 0.00 0.00 77 1010.4
20260507100703 29 125 3.2 8.0 0.00 0.00 0.00 75 1010.4
20260507100203 29 181 1.6 11.3 0.00 0.00 0.00 74 1010.4
20260507095703 29 183 3.2 8.0 0.00 0.00 0.00 74 1010.3
20260507095203 29 192 4.8 12.9 0.00 0.00 0.00 74 1010.2
20260507094203 30 202 3.2 8.0 0.00 0.00 0.00 73 1010.1
20260507093702 30 234 3.2 4.8 0.00 0.00 0.00 72 1010.2
20260507092203 30 204 3.2 9.7 0.00 0.00 0.00 73 1010.2
20260507091703 30 206 3.2 9.7 0.00 0.00 0.00 73 1010.1
20260507091202 30 162 4.8 12.9 0.00 0.00 0.00 73 1010.1
20260507090702 30 191 4.8 12.9 0.00 0.00 0.00 73 1010.2
20260507090203 30 176 3.2 9.7 0.00 0.00 0.00 73 1010.2
20260507085704 30 193 4.8 9.7 0.00 0.00 0.00 73 1010.2
20260507085203 30 129 4.8 12.9 0.00 0.00 0.00 73 1010.2
20260507084202 30 106 4.8 12.9 0.00 0.00 0.00 72 1010.3
20260507083202 30 200 3.2 8.0 0.00 0.00 0.00 72 1010.3
20260507082203 30 143 9.7 19.3 0.00 0.00 0.00 71 1010.3
20260507081703 30 202 3.2 12.9 0.00 0.00 0.00 71 1010.3
20260507081202 30 198 4.8 14.5 0.00 0.00 0.00 72 1010.4
20260507080704 30 172 4.8 14.5 0.00 0.00 0.00 71 1010.4
20260507080202 30 214 8.0 19.3 0.00 0.00 0.00 72 1010.4
20260507075703 30 145 8.0 16.1 0.00 0.00 0.00 72 1010.5
20260507075203 30 141 11.3 16.1 0.00 0.00 0.00 73 1010.6
20260507074203 30 148 4.8 11.3 0.00 0.00 0.00 74 1010.8
20260507073703 30 182 1.6 8.0 0.00 0.00 0.00 75 1010.7
20260507073203 29 239 3.2 12.9 0.00 0.00 0.00 75 1010.8
20260507072703 30 158 6.4 12.9 0.00 0.00 0.00 74 1010.8
20260507072202 30 172 6.4 16.1 0.00 0.00 0.00 74 1010.9
20260507071702 30 138 4.8 16.1 0.00 0.00 0.00 73 1010.7
20260507071203 30 181 4.8 12.9 0.00 0.00 0.00 72 1010.8
20260507070703 30 236 3.2 9.7 0.00 0.00 0.00 72 1010.9
20260507065703 30 155 6.4 12.9 0.00 0.00 0.00 71 1011.0
20260507065202 30 210 4.8 11.3 0.00 0.00 0.00 71 1011.0
20260507064703 31 223 3.2 11.3 0.00 0.00 0.00 70 1011.1
20260507064202 31 215 3.2 4.8 0.00 0.00 0.00 69 1011.2
20260507063202 31 258 4.8 11.3 0.00 0.00 0.00 69 1011.2
20260507061703 32 166 8.0 16.1 0.00 0.00 0.00 68 1011.3
20260507061203 32 293 1.6 4.8 0.00 0.00 0.00 68 1011.3
20260507060703 31 237 0.0 9.7 0.00 0.00 0.00 69 1011.4
20260507060203 31 146 4.8 8.0 0.00 0.00 0.00 70 1011.4
20260507055702 31 48 1.6 9.7 0.00 0.00 0.00 70 1011.5
20260507055203 31 118 6.4 14.5 0.00 0.00 0.00 69 1011.5
20260507054203 32 220 6.4 14.5 0.00 0.00 0.00 68 1011.7
20260507053703 32 199 6.4 11.3 0.00 0.00 0.00 67 1011.8
20260507052203 32 198 4.8 12.9 0.00 0.00 0.00 67 1011.9
20260507051702 32 134 4.8 14.5 0.00 0.00 0.00 69 1011.7
20260507051203 32 181 9.7 19.3 0.00 0.00 0.00 68 1011.8